Tracking 31027 objects as of 19-Jul-2025
HD Live streaming from Space Station
objects crossing your sky now

COSMOS 1375 DEB

Track COSMOS 1375 DEB now!
10-day predictions


NORAD ID: 17807
Int'l Code: 1982-055AZ
Perigee: 929.6 km
Apogee: 999.0 km
Inclination: 65.8 °
Period: 104.2 minutes
Semi major axis: 7335 km
RCS: 0.033 m2 (small)
Launch date: June 6, 1982
Source: Commonwealth of Independent States (former USSR) (CIS)
Launch site: PLESETSK MISSILE AND SPACE COMPLEX (PKMTR)

Note: This is SATELLITE DEBRIS
Your satellite tracking list
STARLINK-5403
Track 1 satellite(s)




NASA's NSSDC Master Catalog

Two Line Element Set (TLE):
1 17807U 82055AZ  25199.55076686  .00000410  00000-0  45457-3 0  9995
2 17807  65.8287 217.4987 0047306 136.2472 307.3453 13.81887303993372
Source of the keplerian elements: AFSPC